Flag for Angola Weather past 2 weeks in Cabinda, Angola

Now
77 °F

Mostly cloudy.


Feels Like: 79 °F
Forecast: 72 / 79 °F
Wind: 10 mph from Southwest

Location: Pointe Airport-Noire

Current Time: Sep 17, 2014 at 5:36:54 PM

Latest Report: Sep 17, 2014 at 5:00 PM


Visibility: 4 mi

Pressure: 29.89 "Hg

Humidity: 79%

Dew point: 70 °F

Location of CabindaLocation

Historic Weather in Cabinda — Graph

°F

Cabinda temperature yesterday

Maximum temperature yesterday: 79 °F (at 2:00 PM)
Minimum temperature yesterday: 72 °F (at 6:00 AM)
Average temperature yesterday: 75 °F

Past Weeks' High & Low Weather Summary

 TemperatureHumidityPressure
High81 °F (Sep 12, 1:00 PM)100% (Sep 5, 2:00 AM)30.07 "Hg (Sep 5, 2:00 AM)
Low66 °F (Sep 6, 6:00 AM)61% (Sep 5, 12:00 PM)29.86 "Hg (Sep 3, 4:00 PM)
Average74 °F84%29.94 "Hg
* Reported Sep 2 4:00 PM — Sep 17 4:00 PM, Cabinda, Weather by CustomWeather, © 2014

Note: Actual official high and low records may vary slightly from our data, if they occured in-between our weather recording intervals... More about our weather records

Advertising

Cabinda weather history for previous 24 hours

 ConditionsComfort  
Time TempWeatherWind HumidityBarometerVisibility
4:00 PM
Sep 17
79 °FMore clouds than sun.10 mph74%29.86 "HgN/A
3:00 PM79 °FBroken clouds.10 mph74%29.86 "Hg5 mi
2:00 PM81 °FScattered clouds.10 mph70%29.89 "Hg5 mi
1:00 PM79 °FPartly sunny.10 mph74%29.92 "Hg4 mi
12:00 PM79 °FPartly sunny.12 mph74%29.92 "Hg4 mi
11:00 AM77 °FMore clouds than sun.9 mph79%29.95 "Hg4 mi
10:00 AM77 °FMore clouds than sun.7 mph79%29.98 "Hg4 mi
9:00 AM75 °FFog.6 mph89%29.95 "Hg2 mi
8:00 AM75 °FFog.6 mph89%29.95 "Hg2 mi
7:00 AM75 °FMore clouds than sun.3 mph89%29.95 "Hg4 mi
6:00 AM73 °FMostly cloudy.3 mph94%29.95 "Hg4 mi
5:00 AM73 °FDrizzle. Mostly cloudy.6 mph94%29.92 "Hg4 mi
4:00 AM73 °FLight rain. Mostly cloudy.3 mph94%29.92 "Hg4 mi
3:00 AM75 °FPartly cloudy.5 mph89%29.89 "Hg5 mi
2:00 AM75 °FMostly cloudy.6 mph89%29.92 "Hg4 mi
1:00 AM75 °FMostly cloudy.5 mph89%29.92 "Hg4 mi
12:00 AM75 °FMostly cloudy.3 mph83%29.92 "Hg4 mi
11:00 PM
Sep 16
75 °FPassing clouds.2 mph89%29.92 "Hg4 mi
10:00 PM75 °FPassing clouds.5 mph89%29.89 "Hg4 mi
9:00 PM75 °FPartly cloudy.5 mph89%29.89 "Hg4 mi
8:00 PM75 °FPassing clouds.8 mph89%29.86 "Hg4 mi
7:00 PM75 °FPartly cloudy.6 mph83%29.86 "Hg4 mi
6:00 PM75 °FBroken clouds.6 mph83%29.86 "Hg4 mi
5:00 PM77 °FBroken clouds.7 mph79%29.86 "Hg5 mi
Weather by CustomWeather, © 2014

See weather overviewHow to use our weather pages